MARKET Weather Reports


time (UTC)temp
C
wind
direction
speed
KPH
gust
KPH
rain 1hr
cm
rain 24hr
cm
rain mn
cm
humidity
%
barometer
mb
20260503020712 5 4 32.2 38.6 0.00 0.00 0.00 88 1008.8
20260503014712 5 4 33.8 41.8 0.00 0.00 0.00 87 1008.7
20260503012712 5 357 33.8 38.6 0.00 0.00 0.00 87 1008.5
20260503010712 5 344 30.6 35.4 0.00 0.00 0.00 90 1008.2
20260503004712 5 334 30.6 35.4 0.00 0.00 0.00 91 1008.1
20260503002712 6 334 33.8 38.6 0.00 0.00 0.00 87 1007.8
20260503000712 6 327 29.0 33.8 0.00 0.00 0.00 85 1007.7
20260502234712 7 310 24.1 25.7 0.00 0.00 0.00 79 1007.6
20260502232711 6 315 16.1 24.1 0.00 0.00 0.00 80 1007.8
20260502230711 7 337 12.9 14.5 0.00 0.00 0.00 76 1007.4
20260502224712 7 345 14.5 16.1 0.00 0.00 0.00 75 1007.4
20260502222712 6 332 17.7 20.9 0.00 0.00 0.00 84 1007.4
20260502220712 6 328 25.7 29.0 0.00 0.00 0.00 81 1007.4
20260502214711 7 314 25.7 29.0 0.00 0.00 0.00 80 1007.2
20260502212710 6 310 24.1 25.7 0.00 0.00 0.00 82 1007.0
20260502210711 7 308 19.3 22.5 0.00 0.00 0.00 77 1006.9
20260502204711 7 319 20.9 24.1 0.00 0.00 0.00 77 1006.7
20260502202710 8 315 29.0 32.2 0.00 0.00 0.00 73 1006.7
20260502200711 9 315 25.7 29.0 0.00 0.00 0.00 64 1006.4
20260502194710 10 315 24.1 27.4 0.00 0.00 0.00 58 1006.1
20260502192711 10 314 24.1 27.4 0.00 0.00 0.00 60 1006.2
20260502190710 11 299 29.0 35.4 0.00 0.00 0.00 56 1005.9
20260502184710 17 254 32.2 33.8 0.00 0.00 0.00 35 1005.6
20260502182710 18 264 33.8 37.0 0.00 0.00 0.00 35 1005.6
20260502180710 15 268 27.4 32.2 0.00 0.00 0.00 41 1005.6
20260502162709 14 221 27.4 33.8 0.00 0.00 0.00 50 1006.0
20260502160710 17 217 30.6 35.4 0.00 0.00 0.00 38 1006.2
20260502150710 13 224 14.5 19.3 0.00 0.00 0.00 52 1007.3
20260502130709 15 234 27.4 30.6 0.00 0.00 0.00 43 1008.4
20260502122709 14 247 22.5 27.4 0.00 0.00 0.00 40 1008.9
20260502120709 12 246 24.1 32.2 0.00 0.00 0.00 52 1009.2
20260502114709 13 247 20.9 27.4 0.00 0.00 0.00 46 1009.3
20260502112708 13 239 11.3 17.7 0.00 0.00 0.00 45 1009.5
20260502110708 13 237 12.9 16.1 0.00 0.00 0.00 46 1009.8
20260502104708 12 238 9.7 14.5 0.00 0.00 0.00 49 1010.0
20260502102708 12 220 6.4 8.0 0.00 0.00 0.00 53 1010.2
20260502100708 12 228 9.7 12.9 0.00 0.00 0.00 50 1010.3
20260502090708 10 197 16.1 19.3 0.00 0.00 0.00 60 1010.7
20260502070708 10 244 32.2 35.4 0.00 0.00 0.00 59 1011.3
20260502064707 8 245 30.6 33.8 0.00 0.00 0.00 65 1011.5
20260502062707 8 244 37.0 40.2 0.00 0.00 0.00 65 1011.5
20260502060708 8 246 41.8 45.1 0.00 0.00 0.00 64 1011.4
20260502054707 8 250 41.8 45.1 0.00 0.00 0.00 63 1011.4
20260502052707 8 249 41.8 43.5 0.00 0.00 0.00 64 1011.4
20260502050707 8 255 35.4 40.2 0.00 0.00 0.00 67 1011.6
20260502044707 8 256 33.8 38.6 0.00 0.00 0.00 66 1011.8
20260502042707 8 254 35.4 38.6 0.00 0.00 0.00 62 1011.7
20260502040707 8 252 37.0 40.2 0.00 0.00 0.00 65 1011.7
20260502034708 8 251 38.6 41.8 0.00 0.00 0.00 64 1011.7
20260502032706 8 252 37.0 41.8 0.00 0.00 0.00 64 1011.9
20260502030708 8 251 37.0 41.8 0.00 0.00 0.00 65 1012.0
20260502024707 9 252 40.2 43.5 0.00 0.00 0.00 63 1012.2
20260502022707 9 255 37.0 41.8 0.00 0.00 0.00 64 1012.2